Flag for U.S.A. Weather past 2 weeks in San Antonio, Texas, U.S.A.

Now
80 °F

Partly sunny.


Feels Like: 84 °F
Forecast: 72 / 80 °F
Wind: 15 mph from Southeast

Location: San Antonio International Airport

Current Time: May 23, 2015 at 11:58:33 AM

Latest Report: May 23, 2015 at 10:51 AM


Visibility: 10 mi

Pressure: 30.03 "Hg

Humidity: 76%

Dew point: 72 °F

Location of San AntonioLocation

Historic Weather in San Antonio — Graph

°F

San Antonio temperature yesterday

Maximum temperature yesterday: 86 °F (at 5:51 PM)
Minimum temperature yesterday: 65 °F (at 2:51 AM)
Average temperature yesterday: 73 °F

Past Weeks' High & Low Weather Summary

 TemperatureHumidityPressure
High88 °F (May 9, 3:51 PM)96% (May 22, 9:51 AM)30.13 "Hg (May 22, 9:51 AM)
Low65 °F (May 22, 2:51 AM)59% (May 9, 3:51 PM)29.70 "Hg (May 9, 5:51 PM)
Average76 °F81%29.93 "Hg
* Reported May 8 10:51 AM — May 23 10:51 AM, San Antonio, Weather by CustomWeather, © 2015

Note: Actual official high and low records may vary slightly from our data, if they occured in-between our weather recording intervals... More about our weather records

Advertising

San Antonio weather history for previous 24 hours

 ConditionsComfort  
Time TempWeatherWind HumidityBarometerVisibility
10:51 AM
Sat, May 23
80 °FPartly sunny.15 mph76%30.03 "Hg10 mi
9:51 AM78 °FBroken clouds.12 mph84%30.04 "Hg8 mi
8:51 AM77 °FFog.13 mph88%30.05 "Hg6 mi
7:51 AM76 °FFog.9 mph91%30.04 "Hg4 mi
7:02 AM76 °FFog.8 mph91%30.08 "Hg4 mi
6:51 AM76 °FFog.9 mph88%30.02 "Hg5 mi
5:51 AM76 °FLight rain. Fog.8 mph91%30.01 "Hg6 mi
4:51 AM76 °FMostly cloudy.9 mph88%30.01 "Hg8 mi
3:51 AM76 °FMostly cloudy.12 mph91%30.00 "Hg8 mi
2:51 AM76 °FMostly cloudy.9 mph88%30.00 "Hg8 mi
1:51 AM76 °FMostly cloudy.9 mph91%30.01 "Hg7 mi
12:51 AM77 °FOvercast.12 mph88%30.01 "Hg9 mi
11:59 PM
Fri, May 22
77 °FMostly cloudy.10 mph88%30.06 "Hg9 mi
10:51 PM77 °FMostly cloudy.12 mph88%30.01 "Hg10 mi
9:51 PM77 °FMostly cloudy.12 mph88%29.99 "Hg10 mi
8:51 PM78 °FOvercast.12 mph84%29.99 "Hg10 mi
7:51 PM78 °FBroken clouds.13 mph84%29.98 "Hg10 mi
6:51 PM80 °FLight rain. Partly sunny.20 mph76%29.97 "Hg10 mi
5:51 PM86 °FBroken clouds.15 mph65%29.96 "Hg10 mi
4:51 PM84 °FBroken clouds.12 mph65%29.98 "Hg10 mi
3:51 PM83 °FBroken clouds.12 mph68%29.99 "Hg10 mi
2:51 PM83 °FBroken clouds.12 mph68%30.01 "Hg10 mi
1:51 PM80 °FPartly sunny.9 mph74%30.02 "Hg10 mi
1:02 PM78 °FMostly cloudy.12 mph79%30.08 "Hg10 mi
12:51 PM77 °FOvercast.13 mph79%30.04 "Hg10 mi
11:51 AM73 °FFog.10 mph88%30.04 "Hg4 mi
Weather by CustomWeather, © 2015

See weather overviewHow to use our weather pages